Notices

What's New in latest Release from April 7th, 2021:

- Updated Glossary, including Speed of Maximum Gust, and Total Hourly Precipitation

- Updated national and regional climate services offices contacts and prices information

- Addition of station inventory lists for 1981-2010, 1971-2000, and 1961-1990 Normals.

If you haven't already, please take our survey and provide feedback about our website: https://eccc.sondage-survey.ca/f/LanguageSelection.aspx?s=442ca660-fcf1-47c0-95a9-59707d6fd709

Hourly Data Report for September 09, 2018

SHEARWATER RCS
NOVA SCOTIA
Current Station Operator: ECCC - MSC

44°37'47.000" N
63°30'48.000" W
24.00 m
8205092
71264
AAW

Download Data

Hourly Data (September 2018)
Hourly Data Report for September 9, 2018
TIME
LST
Temp Definition
°C
Dew Point Definition
°C
Rel Hum Definition
%
Precip. Amount Definition
mm

Wind Dir Definition
10's deg

Wind Spd Definition
km/h
Visibility Definition
km
Stn Press Definition
kPa
Hmdx Definition


Wind Chill Definition


Weather Definition


00:00 8.8 5.3 79 0.0 33 2   101.88     LegendNANA
01:00 8.0 5.3 83 0.0 33 5   101.90     LegendNANA
02:00 9.5 5.7 77 0.0 34 6   101.91     LegendNANA
03:00 9.0 5.7 80 0.0 34 5   101.91     LegendNANA
04:00 9.4 6.1 80 0.0 33 9   101.92     LegendNANA
05:00 8.1 5.8 86 0.0 32 6   101.95     LegendNANA
06:00 8.1 6.4 89 0.0 32 8   101.99     LegendNANA
07:00 10.0 7.1 82 0.0 33 9   102.04     LegendNANA
08:00 13.2 7.3 67 0.0 33 11   102.08     LegendNANA
09:00 15.3 6.5 56 0.0 33 10   102.11     LegendNANA
10:00 15.1 4.0 48 0.0 32 10   102.15     LegendNANA
11:00 16.9 3.1 40 0.0 36 11   102.16     LegendNANA
12:00 17.2 3.1 39 0.0 33 9   102.15     LegendNANA
13:00 17.8 2.1 35 0.0 3 9   102.14     LegendNANA
14:00 18.8 3.9 37 0.0 34 8   102.11     LegendNANA
15:00 17.7 3.6 39 0.0 2 11   102.12     LegendNANA
16:00 19.0 2.6 34 0.0 34 10   102.12     LegendNANA
17:00 17.2 3.2 39 0.0 35 8   102.16     LegendNANA
18:00 17.5 3.7 40 0.0 1 11   102.22     LegendNANA
19:00 15.2 4.6 49 0.0 36 9   102.28     LegendNANA
20:00 14.2 4.8 53 0.0 2 12   102.39     LegendNANA
21:00 13.4 6.0 61 0.0 3 15   102.46     LegendNANA
22:00 12.2 6.5 68 0.0 3 14   102.53     LegendNANA
23:00 11.8 7.0 72 0.0 4 13   102.58     LegendNANA

Notes on Data Quality.

Legend

  • E = Estimated
  • M = Missing
  • NA = Not Available*
  • [empty] = Indicates an unobserved value
Date modified: